Time,TemperatureF,DewpointF,PressureIn,WindDirection,WindDirectionDegrees,WindSpeedMPH,WindSpeedGustMPH,Humidity,HourlyPrecipIn,Conditions,Clouds,dailyrainin,SolarRadiationWatts/m^2,SoftwareType,DateUTC
2013-08-20 00:00:00,69.2,44.5,29.72,NNW,345,3.0,3.0,41,0.00,,,0.00,120,Wunderground v.1.15,2013-08-20 06:00:00,
2013-08-20 00:06:00,68.4,46.8,29.72,East,83,4.0,16.0,46,0.00,,,0.00,120,Wunderground v.1.15,2013-08-20 06:06:00,
2013-08-20 00:12:00,66.2,49.1,29.72,ESE,120,6.0,16.0,54,0.00,,,0.00,114,Wunderground v.1.15,2013-08-20 06:12:00,
2013-08-20 00:18:00,65.2,48.6,29.72,ESE,119,4.0,16.0,55,0.00,,,0.00,109,Wunderground v.1.15,2013-08-20 06:18:00,
2013-08-20 00:24:00,64.0,43.4,29.72,ESE,119,4.0,16.0,47,0.00,,,0.00,104,Wunderground v.1.15,2013-08-20 06:24:00,
2013-08-20 00:30:00,64.0,45.0,29.72,ESE,119,3.0,3.0,50,0.00,,,0.00,102,Wunderground v.1.15,2013-08-20 06:30:00,
2013-08-20 00:36:00,64.1,46.6,29.73,ESE,119,2.0,16.0,53,0.00,,,0.00,100,Wunderground v.1.15,2013-08-20 06:36:00,
2013-08-20 00:42:00,64.3,47.8,29.72,ESE,119,1.0,16.0,55,0.00,,,0.00,98,Wunderground v.1.15,2013-08-20 06:42:00,
2013-08-20 00:48:00,64.3,47.8,29.72,ESE,119,1.0,16.0,55,0.00,,,0.00,98,Wunderground v.1.15,2013-08-20 06:48:00,
2013-08-20 00:54:00,64.2,46.2,29.73,ESE,120,2.0,16.0,52,0.00,,,0.00,97,Wunderground v.1.15,2013-08-20 06:54:00,
2013-08-20 01:00:00,64.1,46.6,29.73,East,95,4.0,16.0,53,0.00,,,0.00,98,Wunderground v.1.15,2013-08-20 07:00:00,
2013-08-20 01:06:00,63.3,41.6,29.73,East,81,6.0,16.0,45,0.00,,,0.00,98,Wunderground v.1.15,2013-08-20 07:06:00,
2013-08-20 01:12:00,62.6,45.7,29.73,East,94,7.0,16.0,54,0.00,,,0.00,97,Wunderground v.1.15,2013-08-20 07:12:00,
2013-08-20 01:18:00,62.6,40.9,29.74,ESE,114,7.0,16.0,45,0.00,,,0.00,95,Wunderground v.1.15,2013-08-20 07:18:00,
2013-08-20 01:24:00,61.6,45.3,29.74,ESE,114,7.0,16.0,55,0.00,,,0.00,93,Wunderground v.1.15,2013-08-20 07:24:00,
2013-08-20 01:30:00,62.3,43.9,29.74,ESE,122,7.0,16.0,51,0.00,,,0.00,93,Wunderground v.1.15,2013-08-20 07:30:00,
2013-08-20 01:36:00,61.6,41.7,29.74,ESE,107,7.0,16.0,48,0.00,,,0.00,93,Wunderground v.1.15,2013-08-20 07:36:00,
2013-08-20 01:42:00,61.5,46.1,29.75,ESE,106,4.0,16.0,57,0.00,,,0.00,91,Wunderground v.1.15,2013-08-20 07:42:00,
2013-08-20 01:48:00,60.7,44.4,29.74,ESE,108,4.0,16.0,55,0.00,,,0.00,90,Wunderground v.1.15,2013-08-20 07:48:00,
2013-08-20 01:56:00,60.7,43.0,29.74,East,81,6.0,16.0,52,0.00,,,0.00,88,Wunderground v.1.15,2013-08-20 07:56:00,
2013-08-20 02:02:00,61.2,39.7,29.75,ESE,104,5.0,15.0,45,0.00,,,0.00,88,Wunderground v.1.15,2013-08-20 08:02:00,
2013-08-20 02:08:00,61.4,46.0,29.75,SE,135,5.0,15.0,57,0.00,,,0.00,90,Wunderground v.1.15,2013-08-20 08:08:00,
2013-08-20 02:14:00,60.8,45.0,29.74,SE,131,5.0,15.0,56,0.00,,,0.00,88,Wunderground v.1.15,2013-08-20 08:14:00,
2013-08-20 02:22:00,59.5,41.3,29.75,ESE,112,6.0,15.0,51,0.00,,,0.00,84,Wunderground v.1.15,2013-08-20 08:22:00,
2013-08-20 02:28:00,59.5,43.8,29.75,SE,135,5.0,15.0,56,0.00,,,0.00,83,Wunderground v.1.15,2013-08-20 08:28:00,
2013-08-20 02:36:00,58.5,44.7,29.76,East,96,5.0,15.0,60,0.00,,,0.00,79,Wunderground v.1.15,2013-08-20 08:36:00,
2013-08-20 02:42:00,58.1,44.3,29.75,ESE,120,4.0,15.0,60,0.00,,,0.00,77,Wunderground v.1.15,2013-08-20 08:42:00,
2013-08-20 02:48:00,57.6,43.4,29.75,ESE,120,5.0,15.0,59,0.00,,,0.00,76,Wunderground v.1.15,2013-08-20 08:48:00,
2013-08-20 02:54:00,57.8,42.7,29.76,ESE,120,4.0,15.0,57,0.00,,,0.00,76,Wunderground v.1.15,2013-08-20 08:54:00,
2013-08-20 03:00:00,58.0,42.8,29.75,ESE,110,3.0,3.0,57,0.00,,,0.00,76,Wunderground v.1.15,2013-08-20 09:00:00,
2013-08-20 03:06:00,58.1,43.8,29.76,ESE,110,2.0,15.0,59,0.00,,,0.00,76,Wunderground v.1.15,2013-08-20 09:06:00,
2013-08-20 03:12:00,58.1,42.9,29.77,ESE,110,2.0,15.0,57,0.00,,,0.00,76,Wunderground v.1.15,2013-08-20 09:12:00,
2013-08-20 03:18:00,58.2,44.8,29.75,ESE,110,2.0,15.0,61,0.00,,,0.00,74,Wunderground v.1.15,2013-08-20 09:18:00,
2013-08-20 03:24:00,58.1,44.7,29.77,East,92,3.0,15.0,61,0.00,,,0.00,74,Wunderground v.1.15,2013-08-20 09:24:00,
2013-08-20 03:32:00,58.2,44.8,29.76,East,93,3.0,15.0,61,0.00,,,0.00,76,Wunderground v.1.15,2013-08-20 09:32:00,
2013-08-20 03:38:00,58.4,45.0,29.76,ESE,110,3.0,15.0,61,0.00,,,0.00,76,Wunderground v.1.15,2013-08-20 09:38:00,
2013-08-20 03:44:00,57.3,44.4,29.78,ESE,111,4.0,15.0,62,0.00,,,0.00,76,Wunderground v.1.15,2013-08-20 09:44:00,
2013-08-20 03:50:00,56.5,45.7,29.78,ESE,102,6.0,6.0,67,0.00,,,0.00,72,Wunderground v.1.15,2013-08-20 09:50:00,
2013-08-20 03:56:00,55.6,42.4,29.77,East,84,7.0,15.0,61,0.00,,,0.00,70,Wunderground v.1.15,2013-08-20 09:56:00,
2013-08-20 04:04:00,55.2,43.6,29.76,East,93,6.0,15.0,65,0.00,,,0.00,69,Wunderground v.1.15,2013-08-20 10:04:00,
2013-08-20 04:10:00,54.8,42.9,29.78,ESE,106,6.0,6.0,64,0.00,,,0.00,67,Wunderground v.1.15,2013-08-20 10:10:00,
2013-08-20 04:20:00,55.5,41.8,29.78,SSE,147,5.0,15.0,60,0.00,,,0.00,67,Wunderground v.1.15,2013-08-20 10:20:00,
2013-08-20 04:26:00,55.6,43.2,29.78,ESE,122,5.0,15.0,63,0.00,,,0.00,69,Wunderground v.1.15,2013-08-20 10:26:00,
2013-08-20 04:32:00,55.9,42.2,29.77,ESE,121,2.0,15.0,60,0.00,,,0.00,69,Wunderground v.1.15,2013-08-20 10:32:00,
2013-08-20 04:38:00,55.9,42.6,29.79,ESE,121,0.0,15.0,61,0.00,,,0.00,67,Wunderground v.1.15,2013-08-20 10:38:00,
2013-08-20 04:44:00,56.0,43.6,29.77,ESE,121,0.0,15.0,63,0.00,,,0.00,67,Wunderground v.1.15,2013-08-20 10:44:00,
2013-08-20 04:50:00,56.0,44.4,29.78,ESE,121,0.0,15.0,65,0.00,,,0.00,65,Wunderground v.1.15,2013-08-20 10:50:00,
2013-08-20 04:56:00,56.0,45.2,29.77,ESE,121,1.0,15.0,67,0.00,,,0.00,65,Wunderground v.1.15,2013-08-20 10:56:00,
2013-08-20 05:02:00,56.1,46.4,29.78,ESE,121,2.0,15.0,70,0.00,,,0.00,65,Wunderground v.1.15,2013-08-20 11:02:00,
2013-08-20 05:08:00,56.0,43.6,29.78,ESE,109,4.0,15.0,63,0.00,,,0.00,65,Wunderground v.1.15,2013-08-20 11:08:00,
2013-08-20 05:14:00,55.5,44.3,29.77,ESE,108,5.0,15.0,66,0.00,,,0.00,67,Wunderground v.1.15,2013-08-20 11:14:00,
2013-08-20 05:22:00,55.4,43.8,29.78,ESE,108,4.0,15.0,65,0.00,,,0.00,67,Wunderground v.1.15,2013-08-20 11:22:00,
2013-08-20 05:28:00,54.7,43.6,29.79,ESE,112,5.0,15.0,66,0.00,,,0.00,65,Wunderground v.1.15,2013-08-20 11:28:00,
2013-08-20 05:34:00,54.0,40.0,29.78,ESE,109,7.0,15.0,59,0.00,,,0.00,65,Wunderground v.1.15,2013-08-20 11:34:00,
2013-08-20 05:42:00,53.4,41.9,29.79,ESE,111,8.0,15.0,65,0.00,,,0.00,63,Wunderground v.1.15,2013-08-20 11:42:00,
2013-08-20 05:48:00,53.1,42.4,29.80,East,100,7.0,15.0,67,0.00,,,0.00,62,Wunderground v.1.15,2013-08-20 11:48:00,
2013-08-20 05:54:00,53.3,43.0,29.78,East,100,5.0,15.0,68,0.00,,,0.00,62,Wunderground v.1.15,2013-08-20 11:54:00,
2013-08-20 06:00:00,53.6,44.8,29.80,East,91,5.0,5.0,72,0.00,,,0.00,62,Wunderground v.1.15,2013-08-20 12:00:00,
2013-08-20 06:06:00,53.6,45.5,29.80,East,91,4.0,15.0,74,0.00,,,0.00,62,Wunderground v.1.15,2013-08-20 12:06:00,
2013-08-20 06:12:00,53.7,45.6,29.80,East,91,1.0,15.0,74,0.00,,,0.00,60,Wunderground v.1.15,2013-08-20 12:12:00,
2013-08-20 06:18:00,54.0,46.3,29.80,East,91,1.0,15.0,75,0.00,,,0.00,60,Wunderground v.1.15,2013-08-20 12:18:00,
2013-08-20 06:24:00,53.8,44.2,29.79,East,92,3.0,15.0,70,0.00,,,0.00,56,Wunderground v.1.15,2013-08-20 12:24:00,
2013-08-20 06:30:00,53.6,43.7,29.80,East,92,3.0,15.0,69,0.00,,,0.00,53,Wunderground v.1.15,2013-08-20 12:30:00,
2013-08-20 06:36:00,53.7,42.6,29.80,ESE,105,4.0,15.0,66,0.00,,,0.00,90,Wunderground v.1.15,2013-08-20 12:36:00,
2013-08-20 06:42:00,53.6,42.5,29.81,ESE,105,5.0,15.0,66,0.00,,,0.00,69,Wunderground v.1.15,2013-08-20 12:42:00,
2013-08-20 06:52:00,53.6,43.7,29.81,ESE,105,3.0,15.0,69,0.00,,,0.00,21,Wunderground v.1.15,2013-08-20 12:52:00,
2013-08-20 06:58:00,53.5,44.0,29.81,ESE,105,3.0,15.0,70,0.00,,,0.00,0,Wunderground v.1.15,2013-08-20 12:58:00,
2013-08-20 07:04:00,53.7,44.5,29.81,ESE,105,2.0,15.0,71,0.00,,,0.00,0,Wunderground v.1.15,2013-08-20 13:04:00,
2013-08-20 07:10:00,53.7,45.2,29.81,ESE,106,1.0,15.0,73,0.00,,,0.00,0,Wunderground v.1.15,2013-08-20 13:10:00,
2013-08-20 07:16:00,53.6,43.3,29.81,ESE,119,2.0,15.0,68,0.00,,,0.00,0,Wunderground v.1.15,2013-08-20 13:16:00,
2013-08-20 07:24:00,53.4,43.1,29.82,ESE,119,3.0,15.0,68,0.00,,,0.00,0,Wunderground v.1.15,2013-08-20 13:24:00,
2013-08-20 07:30:00,53.4,43.1,29.80,ESE,119,3.0,15.0,68,0.00,,,0.00,0,Wunderground v.1.15,2013-08-20 13:30:00,
2013-08-20 07:36:00,53.6,44.0,29.82,ESE,119,2.0,15.0,70,0.00,,,0.00,0,Wunderground v.1.15,2013-08-20 13:36:00,
2013-08-20 07:42:00,53.6,44.8,29.80,ESE,119,3.0,15.0,72,0.00,,,0.00,0,Wunderground v.1.15,2013-08-20 13:42:00,
2013-08-20 07:48:00,53.7,44.5,29.81,ESE,119,2.0,15.0,71,0.00,,,0.00,0,Wunderground v.1.15,2013-08-20 13:48:00,
2013-08-20 07:54:00,53.8,44.2,29.81,ESE,119,2.0,15.0,70,0.00,,,0.00,0,Wunderground v.1.15,2013-08-20 13:54:00,
2013-08-20 08:00:00,54.0,44.4,29.82,ESE,102,3.0,15.0,70,0.00,,,0.00,0,Wunderground v.1.15,2013-08-20 14:00:00,
2013-08-20 08:08:00,54.2,43.1,29.80,ESE,102,2.0,15.0,66,0.00,,,0.00,0,Wunderground v.1.15,2013-08-20 14:08:00,
2013-08-20 08:14:00,54.8,44.0,29.82,East,101,2.0,15.0,67,0.00,,,0.00,0,Wunderground v.1.15,2013-08-20 14:14:00,
2013-08-20 08:20:00,55.3,44.9,29.81,East,101,2.0,2.0,68,0.00,,,0.00,0,Wunderground v.1.15,2013-08-20 14:20:00,
2013-08-20 08:26:00,55.8,44.6,29.82,East,101,1.0,15.0,66,0.00,,,0.00,0,Wunderground v.1.15,2013-08-20 14:26:00,
2013-08-20 08:34:00,56.6,44.6,29.80,East,101,0.0,15.0,64,0.00,,,0.00,0,Wunderground v.1.15,2013-08-20 14:34:00,
2013-08-20 08:42:00,57.6,44.7,29.82,East,101,1.0,15.0,62,0.00,,,0.00,0,Wunderground v.1.15,2013-08-20 14:42:00,
2013-08-20 08:56:00,59.0,43.3,29.80,East,101,2.0,15.0,56,0.00,,,0.00,0,Wunderground v.1.15,2013-08-20 14:56:00,
2013-08-20 09:02:00,59.5,43.3,29.80,East,101,1.0,15.0,55,0.00,,,0.00,0,Wunderground v.1.15,2013-08-20 15:02:00,
2013-08-20 09:10:00,60.3,44.1,29.80,East,101,1.0,1.0,55,0.00,,,0.00,0,Wunderground v.1.15,2013-08-20 15:10:00,
2013-08-20 09:18:00,61.4,45.1,29.80,East,101,0.0,15.0,55,0.00,,,0.00,0,Wunderground v.1.15,2013-08-20 15:18:00,
2013-08-20 09:24:00,62.5,43.6,29.80,East,101,1.0,15.0,50,0.00,,,0.00,0,Wunderground v.1.15,2013-08-20 15:24:00,
2013-08-20 09:30:00,63.0,43.0,29.80,East,101,0.0,15.0,48,0.00,,,0.00,0,Wunderground v.1.15,2013-08-20 15:30:00,
2013-08-20 09:36:00,63.9,45.4,29.80,East,101,0.0,15.0,51,0.00,,,0.00,0,Wunderground v.1.15,2013-08-20 15:36:00,
2013-08-20 09:44:00,65.1,45.5,29.79,East,101,0.0,15.0,49,0.00,,,0.00,0,Wunderground v.1.15,2013-08-20 15:44:00,
2013-08-20 09:50:00,65.8,44.4,29.79,East,101,0.0,15.0,46,0.00,,,0.00,0,Wunderground v.1.15,2013-08-20 15:50:00,
2013-08-20 09:56:00,66.5,45.6,29.79,East,101,1.0,15.0,47,0.00,,,0.00,0,Wunderground v.1.15,2013-08-20 15:56:00,
2013-08-20 10:02:00,66.8,45.3,29.79,East,101,2.0,15.0,46,0.00,,,0.00,0,Wunderground v.1.15,2013-08-20 16:02:00,
2013-08-20 10:08:00,67.1,45.0,29.78,East,101,3.0,15.0,45,0.00,,,0.00,0,Wunderground v.1.15,2013-08-20 16:08:00,
2013-08-20 10:14:00,67.4,45.9,29.78,ESE,102,3.0,15.0,46,0.00,,,0.00,0,Wunderground v.1.15,2013-08-20 16:14:00,
2013-08-20 10:20:00,67.5,46.0,29.78,WSW,253,3.0,3.0,46,0.00,,,0.00,0,Wunderground v.1.15,2013-08-20 16:20:00,
2013-08-20 10:26:00,68.0,46.4,29.78,WSW,253,2.0,15.0,46,0.00,,,0.00,0,Wunderground v.1.15,2013-08-20 16:26:00,
2013-08-20 10:32:00,68.8,46.0,29.78,WSW,253,2.0,15.0,44,0.00,,,0.00,0,Wunderground v.1.15,2013-08-20 16:32:00,
2013-08-20 10:38:00,68.9,46.1,29.78,WSW,253,3.0,15.0,44,0.00,,,0.00,0,Wunderground v.1.15,2013-08-20 16:38:00,
2013-08-20 10:44:00,69.1,46.3,29.78,WSW,253,3.0,15.0,44,0.00,,,0.00,0,Wunderground v.1.15,2013-08-20 16:44:00,
2013-08-20 10:50:00,69.5,45.4,29.77,WSW,252,3.0,15.0,42,0.00,,,0.00,0,Wunderground v.1.15,2013-08-20 16:50:00,
2013-08-20 10:56:00,69.7,45.6,29.77,WSW,251,4.0,15.0,42,0.00,,,0.00,0,Wunderground v.1.15,2013-08-20 16:56:00,
2013-08-20 11:02:00,70.2,46.0,29.77,WSW,250,4.0,5.0,42,0.00,,,0.00,0,Wunderground v.1.15,2013-08-20 17:02:00,
2013-08-20 11:14:00,70.9,46.0,29.77,West,261,4.0,5.0,41,0.00,,,0.00,0,Wunderground v.1.15,2013-08-20 17:14:00,
2013-08-20 11:24:00,71.2,45.0,29.76,West,261,4.0,5.0,39,0.00,,,0.00,0,Wunderground v.1.15,2013-08-20 17:24:00,
2013-08-20 11:30:00,71.5,43.1,29.76,West,261,3.0,3.0,36,0.00,,,0.00,0,Wunderground v.1.15,2013-08-20 17:30:00,
2013-08-20 11:36:00,72.0,43.6,29.76,West,261,3.0,5.0,36,0.00,,,0.00,0,Wunderground v.1.15,2013-08-20 17:36:00,
2013-08-20 11:42:00,72.3,45.9,29.76,West,261,4.0,5.0,39,0.00,,,0.00,0,Wunderground v.1.15,2013-08-20 17:42:00,
2013-08-20 11:48:00,72.9,46.5,29.75,West,261,3.0,5.0,39,0.00,,,0.00,0,Wunderground v.1.15,2013-08-20 17:48:00,
2013-08-20 11:54:00,73.7,43.6,29.75,West,261,3.0,5.0,34,0.00,,,0.00,0,Wunderground v.1.15,2013-08-20 17:54:00,
2013-08-20 12:00:00,74.0,43.1,29.76,WNW,303,3.0,5.0,33,0.00,,,0.00,0,Wunderground v.1.15,2013-08-20 18:00:00,
2013-08-20 12:08:00,74.2,46.2,29.74,WNW,285,4.0,5.0,37,0.00,,,0.00,0,Wunderground v.1.15,2013-08-20 18:08:00,
2013-08-20 12:14:00,74.4,41.8,29.74,WNW,285,4.0,5.0,31,0.00,,,0.00,0,Wunderground v.1.15,2013-08-20 18:14:00,
2013-08-20 12:20:00,74.8,43.0,29.74,WNW,285,4.0,5.0,32,0.00,,,0.00,0,Wunderground v.1.15,2013-08-20 18:20:00,
2013-08-20 12:26:00,75.2,44.9,29.74,WNW,285,3.0,5.0,34,0.00,,,0.00,0,Wunderground v.1.15,2013-08-20 18:26:00,
2013-08-20 12:32:00,75.9,46.3,29.73,WNW,285,4.0,5.0,35,0.00,,,0.00,0,Wunderground v.1.15,2013-08-20 18:32:00,
2013-08-20 12:38:00,76.7,46.2,29.73,WNW,285,4.0,5.0,34,0.00,,,0.00,0,Wunderground v.1.15,2013-08-20 18:38:00,
2013-08-20 12:44:00,77.0,41.4,29.73,WNW,285,4.0,5.0,28,0.00,,,0.00,0,Wunderground v.1.15,2013-08-20 18:44:00,
2013-08-20 12:50:00,77.6,43.7,29.73,WNW,285,3.0,5.0,30,0.00,,,0.00,0,Wunderground v.1.15,2013-08-20 18:50:00,
2013-08-20 12:56:00,77.7,40.1,29.73,WNW,285,3.0,5.0,26,0.00,,,0.00,0,Wunderground v.1.15,2013-08-20 18:56:00,
2013-08-20 13:04:00,78.1,44.1,29.72,NW,322,3.0,5.0,30,0.00,,,0.00,0,Wunderground v.1.15,2013-08-20 19:04:00,
2013-08-20 13:10:00,78.6,39.8,29.72,NNW,340,5.0,5.0,25,0.00,,,0.00,0,Wunderground v.1.15,2013-08-20 19:10:00,
2013-08-20 13:16:00,78.8,40.0,29.72,NW,326,5.0,6.0,25,0.00,,,0.00,0,Wunderground v.1.15,2013-08-20 19:16:00,
2013-08-20 13:24:00,79.5,40.6,29.71,NW,326,3.0,5.0,25,0.00,,,0.00,0,Wunderground v.1.15,2013-08-20 19:24:00,
2013-08-20 13:30:00,79.8,39.8,29.71,ENE,58,4.0,4.0,24,0.00,,,0.00,0,Wunderground v.1.15,2013-08-20 19:30:00,
2013-08-20 13:36:00,79.9,39.9,29.71,ENE,58,3.0,5.0,24,0.00,,,0.00,0,Wunderground v.1.15,2013-08-20 19:36:00,
2013-08-20 13:44:00,80.1,43.1,29.70,WSW,242,4.0,6.0,27,0.00,,,0.00,0,Wunderground v.1.15,2013-08-20 19:44:00,
2013-08-20 13:50:00,80.0,46.6,29.70,WSW,243,5.0,9.0,31,0.00,,,0.00,0,Wunderground v.1.15,2013-08-20 19:50:00,
2013-08-20 13:56:00,79.0,45.8,29.70,WSW,238,7.0,9.0,31,0.00,,,0.00,0,Wunderground v.1.15,2013-08-20 19:56:00,
2013-08-20 14:04:00,78.6,45.4,29.70,West,263,9.0,9.0,31,0.00,,,0.00,0,Wunderground v.1.15,2013-08-20 20:04:00,
2013-08-20 14:10:00,78.9,45.7,29.70,WSW,258,7.0,7.0,31,0.00,,,0.00,0,Wunderground v.1.15,2013-08-20 20:10:00,
2013-08-20 14:16:00,79.0,44.0,29.70,WSW,248,8.0,12.0,29,0.00,,,0.00,0,Wunderground v.1.15,2013-08-20 20:16:00,
2013-08-20 14:22:00,79.0,46.6,29.70,WSW,247,10.0,10.0,32,0.00,,,0.00,0,Wunderground v.1.15,2013-08-20 20:22:00,
2013-08-20 14:28:00,79.0,46.6,29.69,WSW,258,10.0,13.0,32,0.00,,,0.00,0,Wunderground v.1.15,2013-08-20 20:28:00,
2013-08-20 14:34:00,79.0,47.4,29.69,West,262,11.0,11.0,33,0.00,,,0.00,0,Wunderground v.1.15,2013-08-20 20:34:00,
2013-08-20 14:40:00,79.3,43.4,29.69,WNW,293,9.0,9.0,28,0.00,,,0.00,0,Wunderground v.1.15,2013-08-20 20:40:00,
2013-08-20 14:46:00,79.7,43.7,29.69,West,271,6.0,9.0,28,0.00,,,0.00,0,Wunderground v.1.15,2013-08-20 20:46:00,
2013-08-20 14:52:00,80.2,45.1,29.69,WNW,289,6.0,6.0,29,0.00,,,0.00,0,Wunderground v.1.15,2013-08-20 20:52:00,
2013-08-20 14:58:00,80.5,44.4,29.68,West,268,7.0,11.0,28,0.00,,,0.00,0,Wunderground v.1.15,2013-08-20 20:58:00,
2013-08-20 15:04:00,80.2,45.9,29.69,WSW,252,10.0,15.0,30,0.00,,,0.00,0,Wunderground v.1.15,2013-08-20 21:04:00,
2013-08-20 15:10:00,79.9,44.8,29.68,West,275,13.0,15.0,29,0.00,,,0.00,0,Wunderground v.1.15,2013-08-20 21:10:00,
2013-08-20 15:16:00,79.9,45.7,29.68,WSW,255,15.0,19.0,30,0.00,,,0.00,0,Wunderground v.1.15,2013-08-20 21:16:00,
2013-08-20 15:22:00,80.1,42.1,29.68,WSW,249,14.0,15.0,26,0.00,,,0.00,0,Wunderground v.1.15,2013-08-20 21:22:00,
2013-08-20 15:28:00,80.9,40.7,29.68,WSW,248,12.0,20.0,24,0.00,,,0.00,0,Wunderground v.1.15,2013-08-20 21:28:00,
2013-08-20 15:34:00,81.0,51.5,29.68,WSW,249,13.0,15.0,36,0.00,,,0.00,0,Wunderground v.1.15,2013-08-20 21:34:00,
2013-08-20 15:40:00,80.7,46.4,29.68,WSW,258,15.0,15.0,30,0.00,,,0.00,0,Wunderground v.1.15,2013-08-20 21:40:00,
2013-08-20 15:46:00,80.7,43.6,29.67,WNW,289,14.0,15.0,27,0.00,,,0.00,0,Wunderground v.1.15,2013-08-20 21:46:00,
2013-08-20 15:54:00,81.3,45.1,29.67,WSW,247,11.0,15.0,28,0.00,,,0.00,0,Wunderground v.1.15,2013-08-20 21:54:00,
2013-08-20 16:00:00,81.6,43.4,29.67,WSW,249,11.0,11.0,26,0.00,,,0.00,0,Wunderground v.1.15,2013-08-20 22:00:00,
2013-08-20 16:06:00,81.8,41.5,29.67,WSW,241,10.0,15.0,24,0.00,,,0.00,0,Wunderground v.1.15,2013-08-20 22:06:00,
2013-08-20 16:12:00,82.0,42.7,29.67,WSW,243,9.0,15.0,25,0.00,,,0.00,0,Wunderground v.1.15,2013-08-20 22:12:00,
2013-08-20 16:18:00,82.2,45.8,29.67,WSW,256,10.0,15.0,28,0.00,,,0.00,0,Wunderground v.1.15,2013-08-20 22:18:00,
2013-08-20 16:24:00,81.7,50.6,29.67,SW,233,11.0,15.0,34,0.00,,,0.00,0,Wunderground v.1.15,2013-08-20 22:24:00,
2013-08-20 16:30:00,82.2,41.8,29.67,SSW,203,12.0,18.0,24,0.00,,,0.00,0,Wunderground v.1.15,2013-08-20 22:30:00,
2013-08-20 16:36:00,83.6,39.5,29.67,SW,231,13.0,18.0,21,0.00,,,0.00,0,Wunderground v.1.15,2013-08-20 22:36:00,
2013-08-20 16:44:00,83.9,41.0,29.67,SSW,193,16.0,22.0,22,0.00,,,0.00,0,Wunderground v.1.15,2013-08-20 22:44:00,
2013-08-20 16:50:00,84.0,38.6,29.67,South,181,16.0,17.0,20,0.00,,,0.00,0,Wunderground v.1.15,2013-08-20 22:50:00,
2013-08-20 16:56:00,84.1,41.1,29.67,SSW,203,14.0,17.0,22,0.00,,,0.00,0,Wunderground v.1.15,2013-08-20 22:56:00,
2013-08-20 17:02:00,83.7,45.2,29.67,SW,222,13.0,15.0,26,0.00,,,0.00,0,Wunderground v.1.15,2013-08-20 23:02:00,
2013-08-20 17:08:00,82.7,43.3,29.67,WSW,241,11.0,15.0,25,0.00,,,0.00,0,Wunderground v.1.15,2013-08-20 23:08:00,
2013-08-20 17:14:00,82.5,45.1,29.66,WSW,250,14.0,20.0,27,0.00,,,0.00,0,Wunderground v.1.15,2013-08-20 23:14:00,
2013-08-20 17:20:00,82.7,42.2,29.67,SW,229,14.0,14.0,24,0.00,,,0.00,0,Wunderground v.1.15,2013-08-20 23:20:00,
2013-08-20 17:28:00,83.2,37.9,29.67,SSW,199,11.0,18.0,20,0.00,,,0.00,0,Wunderground v.1.15,2013-08-20 23:28:00,
2013-08-20 17:34:00,83.6,39.5,29.67,SSW,206,14.0,18.0,21,0.00,,,0.00,0,Wunderground v.1.15,2013-08-20 23:34:00,
2013-08-20 17:40:00,83.0,44.6,29.67,SW,235,14.0,14.0,26,0.00,,,0.00,0,Wunderground v.1.15,2013-08-20 23:40:00,
2013-08-20 17:46:00,83.0,45.6,29.67,SSW,210,11.0,15.0,27,0.00,,,0.00,0,Wunderground v.1.15,2013-08-20 23:46:00,
2013-08-20 17:52:00,83.4,39.4,29.67,SSW,208,10.0,15.0,21,0.00,,,0.00,0,Wunderground v.1.15,2013-08-20 23:52:00,
2013-08-20 17:58:00,83.7,38.4,29.67,SW,216,11.0,15.0,20,0.00,,,0.00,0,Wunderground v.1.15,2013-08-20 23:58:00,
2013-08-20 18:04:00,83.7,39.6,29.67,SSW,210,11.0,15.0,21,0.00,,,0.00,0,Wunderground v.1.15,2013-08-21 00:04:00,
2013-08-20 18:10:00,83.6,37.0,29.67,SW,215,11.0,11.0,19,0.00,,,0.00,0,Wunderground v.1.15,2013-08-21 00:10:00,
2013-08-20 18:16:00,83.6,40.7,29.67,SW,221,10.0,15.0,22,0.00,,,0.00,0,Wunderground v.1.15,2013-08-21 00:16:00,
2013-08-20 18:22:00,83.4,43.9,29.67,SW,222,10.0,15.0,25,0.00,,,0.00,0,Wunderground v.1.15,2013-08-21 00:22:00,
2013-08-20 18:28:00,83.2,39.2,29.67,SSW,192,11.0,15.0,21,0.00,,,0.00,0,Wunderground v.1.15,2013-08-21 00:28:00,
2013-08-20 18:34:00,83.0,39.0,29.67,SSW,211,11.0,15.0,21,0.00,,,0.00,0,Wunderground v.1.15,2013-08-21 00:34:00,
2013-08-20 18:40:00,82.7,40.0,29.67,SW,225,11.0,15.0,22,0.00,,,0.00,0,Wunderground v.1.15,2013-08-21 00:40:00,
2013-08-20 18:46:00,82.2,41.8,29.67,SSW,205,11.0,15.0,24,0.00,,,0.00,0,Wunderground v.1.15,2013-08-21 00:46:00,
2013-08-20 18:52:00,81.9,41.6,29.67,SSW,206,10.0,15.0,24,0.00,,,0.00,0,Wunderground v.1.15,2013-08-21 00:52:00,
2013-08-20 18:58:00,81.5,40.1,29.67,SSW,211,9.0,15.0,23,0.00,,,0.00,0,Wunderground v.1.15,2013-08-21 00:58:00,
2013-08-20 19:04:00,81.5,40.1,29.67,SSW,212,11.0,15.0,23,0.00,,,0.00,0,Wunderground v.1.15,2013-08-21 01:04:00,
2013-08-20 19:10:00,81.0,41.9,29.68,SSW,208,9.0,9.0,25,0.00,,,0.00,0,Wunderground v.1.15,2013-08-21 01:10:00,
2013-08-20 19:16:00,80.6,42.5,29.68,SW,226,6.0,15.0,26,0.00,,,0.00,0,Wunderground v.1.15,2013-08-21 01:16:00,
2013-08-20 19:22:00,80.5,41.4,29.68,SW,216,3.0,6.0,25,0.00,,,0.00,0,Wunderground v.1.15,2013-08-21 01:22:00,
2013-08-20 19:28:00,80.5,42.4,29.68,SW,216,2.0,15.0,26,0.00,,,0.00,0,Wunderground v.1.15,2013-08-21 01:28:00,
2013-08-20 19:36:00,79.9,42.9,29.69,West,275,3.0,15.0,27,0.00,,,0.00,0,Wunderground v.1.15,2013-08-21 01:36:00,
2013-08-20 19:42:00,79.8,43.8,29.69,West,268,3.0,15.0,28,0.00,,,0.00,0,Wunderground v.1.15,2013-08-21 01:42:00,
2013-08-20 19:48:00,79.4,42.5,29.69,WNW,293,5.0,15.0,27,0.00,,,0.00,0,Wunderground v.1.15,2013-08-21 01:48:00,
2013-08-20 19:54:00,78.8,40.0,29.69,WNW,293,11.0,18.0,25,0.00,,,0.00,0,Wunderground v.1.15,2013-08-21 01:54:00,
2013-08-20 20:00:00,78.3,43.4,29.69,WNW,285,16.0,18.0,29,0.00,,,0.00,0,Wunderground v.1.15,2013-08-21 02:00:00,
2013-08-20 20:06:00,77.6,42.8,29.70,WNW,303,16.0,18.0,29,0.00,,,0.00,9,Wunderground v.1.15,2013-08-21 02:06:00,
2013-08-20 20:12:00,77.3,42.6,29.70,WNW,302,15.0,16.0,29,0.00,,,0.00,23,Wunderground v.1.15,2013-08-21 02:12:00,
2013-08-20 20:18:00,77.0,42.3,29.70,WNW,298,14.0,16.0,29,0.00,,,0.00,42,Wunderground v.1.15,2013-08-21 02:18:00,
2013-08-20 20:24:00,76.5,42.7,29.70,NW,308,15.0,19.0,30,0.00,,,0.00,70,Wunderground v.1.15,2013-08-21 02:24:00,
2013-08-20 20:30:00,76.2,43.3,29.71,WNW,292,16.0,20.0,31,0.00,,,0.00,98,Wunderground v.1.15,2013-08-21 02:30:00,
2013-08-20 20:36:00,75.9,41.3,29.70,WNW,293,16.0,20.0,29,0.00,,,0.00,135,Wunderground v.1.15,2013-08-21 02:36:00,
2013-08-20 20:42:00,75.7,43.7,29.71,NW,309,16.0,20.0,32,0.00,,,0.00,148,Wunderground v.1.15,2013-08-21 02:42:00,
2013-08-20 20:48:00,75.4,42.7,29.71,WNW,293,18.0,20.0,31,0.00,,,0.00,163,Wunderground v.1.15,2013-08-21 02:48:00,
2013-08-20 20:54:00,75.1,41.5,29.72,WNW,293,17.0,18.0,30,0.00,,,0.00,169,Wunderground v.1.15,2013-08-21 02:54:00,
2013-08-20 21:00:00,75.1,43.2,29.72,WNW,290,19.0,19.0,32,0.00,,,0.00,167,Wunderground v.1.15,2013-08-21 03:00:00,
2013-08-20 21:06:00,74.9,44.6,29.72,West,280,19.0,19.0,34,0.00,,,0.00,167,Wunderground v.1.15,2013-08-21 03:06:00,
2013-08-20 21:12:00,74.7,43.7,29.72,WNW,285,18.0,19.0,33,0.00,,,0.00,165,Wunderground v.1.15,2013-08-21 03:12:00,
2013-08-20 21:18:00,74.5,44.3,29.72,WNW,285,18.0,19.0,34,0.00,,,0.00,163,Wunderground v.1.15,2013-08-21 03:18:00,
2013-08-20 21:24:00,74.1,43.9,29.73,WNW,285,16.0,17.0,34,0.00,,,0.00,162,Wunderground v.1.15,2013-08-21 03:24:00,
2013-08-20 21:32:00,73.7,42.0,29.74,WNW,298,14.0,14.0,32,0.00,,,0.00,158,Wunderground v.1.15,2013-08-21 03:32:00,
2013-08-20 21:38:00,73.4,40.9,29.74,WNW,295,13.0,14.0,31,0.00,,,0.00,156,Wunderground v.1.15,2013-08-21 03:38:00,
2013-08-20 21:44:00,73.3,40.0,29.74,WNW,299,13.0,13.0,30,0.00,,,0.00,155,Wunderground v.1.15,2013-08-21 03:44:00,
2013-08-20 21:52:00,73.4,42.5,29.74,WNW,303,16.0,18.0,33,0.00,,,0.00,155,Wunderground v.1.15,2013-08-21 03:52:00,
2013-08-20 22:00:00,73.2,43.9,29.74,NW,305,17.0,18.0,35,0.00,,,0.00,155,Wunderground v.1.15,2013-08-21 04:00:00,
2013-08-20 22:02:00,73.1,43.8,29.75,WNW,285,17.0,18.0,35,0.00,,,0.00,153,Wunderground v.1.15,2013-08-21 04:02:00,
2013-08-20 22:04:00,73.0,40.6,29.74,WNW,300,17.0,18.0,31,0.00,,,0.00,153,Wunderground v.1.15,2013-08-21 04:04:00,
2013-08-20 22:06:00,73.0,40.6,29.75,NW,318,16.0,18.0,31,0.00,,,0.00,153,Wunderground v.1.15,2013-08-21 04:06:00,
2013-08-20 22:08:00,72.8,40.4,29.75,NW,306,16.0,18.0,31,0.00,,,0.00,153,Wunderground v.1.15,2013-08-21 04:08:00,
2013-08-20 22:10:00,72.7,39.5,29.75,WNW,299,15.0,17.0,30,0.00,,,0.00,151,Wunderground v.1.15,2013-08-21 04:10:00,
2013-08-20 22:16:00,72.5,40.1,29.75,WNW,294,16.0,17.0,31,0.00,,,0.00,151,Wunderground v.1.15,2013-08-21 04:16:00,
2013-08-20 22:22:00,72.5,40.1,29.75,NW,307,16.0,16.0,31,0.00,,,0.00,149,Wunderground v.1.15,2013-08-21 04:22:00,
2013-08-20 22:28:00,72.6,41.0,29.75,WNW,295,16.0,18.0,32,0.00,,,0.00,149,Wunderground v.1.15,2013-08-21 04:28:00,
2013-08-20 22:34:00,72.4,43.2,29.75,WNW,285,17.0,17.0,35,0.00,,,0.00,149,Wunderground v.1.15,2013-08-21 04:34:00,
2013-08-20 22:42:00,72.3,42.3,29.75,WNW,285,16.0,16.0,34,0.00,,,0.00,148,Wunderground v.1.15,2013-08-21 04:42:00,
2013-08-20 22:48:00,72.3,40.8,29.75,WNW,295,16.0,18.0,32,0.00,,,0.00,148,Wunderground v.1.15,2013-08-21 04:48:00,
2013-08-20 22:54:00,72.5,41.7,29.75,WNW,299,17.0,23.0,33,0.00,,,0.00,148,Wunderground v.1.15,2013-08-21 04:54:00,
2013-08-20 23:00:00,72.4,41.7,29.76,West,280,17.0,18.0,33,0.00,,,0.00,148,Wunderground v.1.15,2013-08-21 05:00:00,
2013-08-20 23:06:00,72.2,42.3,29.77,West,275,16.0,18.0,34,0.00,,,0.00,148,Wunderground v.1.15,2013-08-21 05:06:00,
2013-08-20 23:12:00,72.0,42.1,29.77,West,275,14.0,15.0,34,0.00,,,0.00,148,Wunderground v.1.15,2013-08-21 05:12:00,
2013-08-20 23:18:00,71.9,42.0,29.77,West,275,13.0,15.0,34,0.00,,,0.00,146,Wunderground v.1.15,2013-08-21 05:18:00,
2013-08-20 23:24:00,71.9,46.3,29.77,SW,224,12.0,14.0,40,0.00,,,0.00,146,Wunderground v.1.15,2013-08-21 05:24:00,
2013-08-20 23:30:00,70.2,38.9,29.78,SW,220,11.0,11.0,32,0.00,,,0.00,137,Wunderground v.1.15,2013-08-21 05:30:00,
2013-08-20 23:36:00,69.3,40.5,29.78,West,260,10.0,11.0,35,0.00,,,0.00,132,Wunderground v.1.15,2013-08-21 05:36:00,
2013-08-20 23:42:00,69.3,41.9,29.78,WSW,241,8.0,9.0,37,0.00,,,0.00,130,Wunderground v.1.15,2013-08-21 05:42:00,
2013-08-20 23:50:00,68.7,43.4,29.79,WSW,240,4.0,4.0,40,0.00,,,0.00,125,Wunderground v.1.15,2013-08-21 05:50:00,
2013-08-20 23:56:00,68.0,40.7,29.79,SW,220,4.0,9.0,37,0.00,,,0.00,120,Wunderground v.1.15,2013-08-21 05:56:00,